Vorticity
1 2 4 7 10 10 10 11 10 9 8 9 8 7 6 6 6 6 7 8 9 10 11 13 15 17 19 21 21 20 18 17 16 16 20 25 29 33 36 37 38 35 33 30 29 28 27 26 24 23 23 22 21 20 20 20 19 19 20 19 19 20 19 19 20 19 18 20 20 19 19 19 20 21 22 22 22 23 24 23 23 23 24 24 25
2 4 7 9 10 11 11 10 9 8 8 8 6 6 7 7 7 7 8 9 10 11 13 15 17 20 21 21 20 18 16 16 18 21 28 33 34 36 37 36 34 31 29 28 27 27 26 26 25 24 23 24 25 24 23 22 22 22 22 23 22 21 21 20 20 21 18 17 17 17 17 17 17 17 19 20 20 21 22 23 23 23 22 21 21
4 6 9 10 11 11 10 9 9 8 7 7 6 7 7 7 7 8 9 10 11 13 15 18 20 22 22 20 18 16 17 21 24 29 35 36 35 35 34 31 29 27 26 24 23 23 22 24 27 29 31 30 27 24 22 20 20 19 17 17 16 15 15 15 14 14 12 11 11 11 11 11 12 12 13 14 14 14 16 18 20 21 22 23 22
6 8 10 11 12 11 10 9 8 7 6 6 7 7 7 8 8 9 10 11 13 16 18 20 22 22 20 18 16 16 22 28 31 34 38 36 34 34 32 30 29 28 27 27 26 25 24 24 26 28 29 25 20 16 15 14 13 13 12 12 12 12 12 13 14 15 15 17 18 20 20 21 21 22 21 20 20 19 17 16 16 16 17 19 21
8 10 11 12 11 10 9 8 7 6 6 7 7 7 7 8 8 10 11 13 16 18 20 22 22 21 17 16 17 21 28 34 35 37 39 36 34 33 31 31 32 32 33 33 33 34 34 32 31 30 28 25 24 23 23 22 22 22 22 22 22 22 22 23 25 27 29 30 31 31 31 32 31 31 30 30 30 30 29 28 25 22 19 17 16
9 11 12 12 11 9 8 7 6 6 7 7 7 7 7 8 9 11 13 16 19 20 22 23 20 18 17 18 23 29 35 38 37 36 34 31 28 27 25 25 25 25 25 25 26 27 28 29 28 28 28 27 28 28 28 28 28 29 28 28 27 27 27 27 26 26 25 24 24 23 22 23 22 22 24 25 28 30 31 32 32 32 30 27 23
10 12 12 11 9 8 6 6 6 7 7 7 7 6 7 9 11 14 16 19 21 22 23 21 18 18 20 24 31 35 37 37 34 30 26 22 20 19 18 18 17 17 17 16 16 17 16 17 17 17 18 18 18 18 19 19 18 18 18 18 18 17 16 16 14 14 13 13 13 13 13 13 14 14 15 17 18 21 23 24 25 28 31 31 31
11 12 11 10 8 6 5 6 7 7 7 7 7 7 9 12 14 17 19 20 22 23 21 19 18 21 25 31 35 35 33 30 25 21 19 18 17 16 15 15 14 14 14 13 13 13 12 12 12 12 12 11 11 11 12 12 12 11 11 11 11 11 10 10 9 9 9 9 10 9 8 8 8 8 8 8 9 10 12 14 15 18 21 24 28
11 11 10 8 6 5 6 7 7 7 7 6 7 8 11 14 16 18 20 22 23 22 20 19 21 25 30 33 33 30 26 23 20 18 17 16 16 15 14 14 13 13 12 12 12 12 11 11 11 11 11 11 12 12 11 12 13 13 13 13 13 13 12 11 11 11 11 11 12 12 12 14 14 15 14 14 14 13 13 12 12 12 12 13 17
11 10 8 6 5 6 7 8 7 7 6 6 7 11 14 16 18 20 21 23 22 21 20 21 24 28 31 30 27 24 21 20 18 17 16 16 16 15 14 13 12 12 12 11 12 12 12 12 12 12 13 13 13 14 14 15 16 16 17 18 20 21 20 19 19 19 20 21 23 23 24 25 25 26 26 25 25 24 25 24 23 22 20 17 15
10 8 7 5 5 7 7 8 7 6 6 7 10 13 16 18 19 21 23 23 22 20 21 23 26 29 29 26 23 21 20 18 18 16 15 15 14 13 13 12 12 13 13 13 13 13 13 14 14 14 15 16 17 18 19 20 20 20 19 19 20 21 21 21 21 20 20 21 21 21 21 20 20 21 21 20 21 21 21 22 22 23 25 24 22
8 6 6 5 6 8 8 7 6 6 7 9 13 15 17 19 21 22 24 23 20 20 21 24 27 28 26 24 21 20 19 18 16 15 14 13 12 12 12 12 12 12 13 14 14 15 16 17 19 20 20 20 20 19 18 18 17 17 16 15 14 14 15 16 16 16 16 16 17 17 16 17 17 18 18 17 17 18 18 19 19 18 18 19 20
6 5 5 6 7 8 7 6 6 7 9 11 15 17 18 21 23 23 23 21 19 21 23 26 27 25 22 20 19 19 18 17 15 14 13 13 13 13 13 14 15 16 17 18 19 20 21 21 20 19 18 17 16 15 14 14 14 14 14 14 14 14 15 16 16 18 19 19 20 19 19 18 18 18 19 19 19 19 19 20 22 22 22 21 21
6 5 6 7 8 7 6 6 6 8 11 14 16 18 20 22 23 23 22 20 19 22 25 26 24 21 18 18 19 18 16 15 14 13 13 15 15 16 17 18 19 20 19 19 19 18 18 16 15 14 14 14 14 14 14 14 14 15 15 16 16 16 17 18 19 19 19 19 19 18 17 17 16 15 16 17 17 17 17 17 18 20 22 24 26
6 6 6 7 7 6 6 6 8 10 13 15 17 20 22 23 23 22 20 19 20 24 26 25 21 19 17 18 18 17 15 13 14 14 15 17 18 18 19 19 19 18 17 16 15 14 14 13 13 13 13 14 14 14 15 15 15 15 16 17 19 20 20 20 20 19 17 16 15 15 14 14 15 14 13 12 12 12 13 14 14 15 15 16 19
6 6 7 7 6 6 6 7 10 12 14 17 19 21 23 24 23 21 19 20 23 26 25 22 19 17 16 17 17 16 14 14 15 16 17 18 18 17 17 16 15 15 14 13 13 13 13 13 13 13 13 13 14 14 15 15 16 16 16 16 18 19 18 17 16 15 13 12 11 10 10 10 10 10 11 11 10 10 10 10 10 10 11 12 13
6 7 8 7 6 7 8 9 11 13 15 19 21 22 23 24 22 20 20 22 25 25 22 19 17 16 15 16 16 15 14 15 16 16 17 16 15 14 12 12 12 12 12 12 13 13 13 13 13 13 14 13 13 13 13 14 15 15 16 15 15 15 14 12 11 10 8 8 8 8 9 10 11 11 12 13 13 13 14 14 14 14 12 13 14
7 8 7 7 7 8 9 10 13 15 17 20 22 23 23 23 22 20 21 24 25 23 21 19 18 17 16 17 16 15 15 15 15 15 14 13 12 12 11 12 12 12 12 12 12 13 13 13 13 13 14 14 14 15 15 15 16 15 15 16 15 13 12 10 9 8 8 8 9 10 11 12 14 16 17 18 17 17 17 18 20 22 20 17 16
8 8 7 7 8 9 10 11 14 16 19 21 22 23 23 22 21 22 23 25 24 22 21 20 19 18 18 18 17 17 17 17 17 17 16 16 16 16 15 16 15 15 16 15 15 16 15 15 15 15 14 14 14 14 15 16 18 18 16 15 14 13 11 10 9 7 8 9 9 9 10 11 13 15 16 18 19 18 18 17 17 18 19 19 18
8 7 8 9 9 9 11 12 16 18 20 21 22 22 22 21 21 23 24 23 22 20 19 18 18 19 18 18 18 18 18 18 17 17 16 15 14 13 13 13 13 12 13 13 13 13 14 15 16 16 16 16 16 15 15 15 17 18 18 16 14 12 10 8 7 6 6 9 9 7 7 9 11 13 15 16 16 16 16 14 12 11 11 12 14
8 7 8 9 9 10 12 13 17 20 20 21 22 22 22 21 22 24 24 21 19 16 14 15 16 16 16 15 15 15 15 14 12 11 10 9 8 8 7 7 7 7 7 7 6 7 7 8 9 9 11 13 14 15 15 15 16 16 17 17 15 13 10 8 6 5 5 7 7 6 6 6 8 11 14 15 15 13 12 11 11 11 11 11 12
8 8 9 9 10 12 12 14 18 20 20 22 22 22 21 21 22 23 22 19 16 13 12 13 14 14 13 13 12 12 11 10 8 7 6 6 6 6 6 6 6 7 7 6 6 6 7 7 6 6 6 6 7 8 10 12 14 15 16 16 16 14 12 10 8 6 5 6 6 6 6 6 7 8 11 14 16 15 12 11 10 10 11 12 13
8 9 9 10 11 12 12 16 19 20 21 23 22 21 22 21 21 22 20 17 15 13 13 14 13 12 12 11 10 9 6 4 3 2 2 3 3 4 5 5 6 6 6 6 6 6 7 7 7 7 7 7 6 6 6 6 8 9 11 13 15 16 16 15 13 11 10 9 7 6 6 7 7 7 8 11 14 16 15 14 12 10 10 11 12
9 10 10 11 12 11 13 18 20 20 22 22 21 21 22 20 20 21 19 16 15 14 15 14 13 12 11 10 8 5 2 0 -1 -2 -1 1 2 3 4 5 5 6 6 6 6 6 6 6 7 7 7 7 8 7 7 7 6 6 7 7 9 11 12 14 15 15 15 14 12 11 10 9 7 6 6 7 8 11 12 13 13 12 10 10 11
10 11 10 11 11 12 16 18 19 21 22 21 21 22 21 20 20 20 18 15 15 15 14 13 12 11 10 8 6 4 1 -1 -3 -3 -1 1 3 4 4 5 5 6 7 7 8 9 9 8 9 8 7 8 8 8 8 8 8 8 8 7 7 8 8 9 10 12 13 13 14 14 13 12 11 8 7 6 6 6 8 9 10 12 12 10 10
11 11 11 11 11 14 17 18 19 22 22 21 21 22 20 19 19 18 17 16 15 14 13 12 11 10 8 7 6 3 -0 -3 -3 -1 1 3 5 5 5 5 6 7 8 9 10 10 11 10 10 10 9 9 10 10 9 9 9 9 9 9 9 8 8 8 9 9 10 10 11 11 12 12 12 12 10 9 8 6 5 6 7 9 11 13 13
12 12 10 11 12 15 17 18 20 23 21 20 21 21 19 18 18 17 17 15 14 13 12 11 10 8 7 7 4 1 -1 -1 0 2 4 5 7 7 6 6 7 8 9 9 9 8 8 8 8 9 10 11 11 11 11 10 10 10 10 9 9 9 8 8 8 9 9 10 11 11 12 12 12 12 11 11 11 10 8 6 6 6 7 10 12
13 11 10 11 13 16 18 19 22 22 21 20 20 19 18 18 17 17 16 15 13 12 10 10 8 7 6 5 3 1 0 1 2 3 5 7 7 7 7 6 6 8 9 8 7 5 5 5 5 6 8 8 9 9 10 10 10 10 11 10 10 10 9 9 9 8 7 8 9 10 12 13 13 13 13 12 12 13 12 10 9 8 7 6 8
12 11 10 12 14 17 18 20 22 22 20 20 20 19 18 17 17 16 15 13 12 10 9 8 7 6 6 4 2 2 2 2 3 3 5 7 6 6 7 7 7 8 8 7 6 5 4 4 4 5 6 5 6 6 7 8 9 10 11 11 10 10 10 9 9 10 9 8 8 7 8 9 10 11 12 13 13 13 13 13 12 12 11 9 8
12 10 10 13 15 17 18 20 22 21 19 19 20 18 16 16 15 14 13 12 11 9 8 7 6 5 5 4 3 3 3 4 6 6 7 7 6 6 6 6 6 6 5 4 4 4 4 4 3 4 4 4 5 5 4 5 6 7 9 10 11 11 11 10 9 9 9 9 9 8 8 7 7 7 8 9 11 12 13 13 12 12 13 13 11
11 10 11 14 16 18 19 21 22 21 19 19 19 16 15 14 13 13 12 11 10 9 8 7 6 6 5 5 5 5 6 7 8 7 7 6 5 4 4 4 4 5 5 4 4 4 5 5 4 3 3 3 4 5 4 5 5 5 6 7 8 10 11 12 12 11 10 10 9 9 9 9 9 9 7 6 6 8 9 11 12 11 11 12 12
11 10 11 14 17 18 19 21 22 19 18 19 17 14 13 12 12 12 11 10 10 9 8 8 7 7 7 7 7 7 8 9 8 6 5 5 4 5 5 4 5 6 6 5 5 5 5 5 4 3 3 3 4 4 4 4 5 5 5 5 5 7 9 10 12 13 12 12 11 10 10 10 10 10 10 9 8 7 6 7 9 10 11 11 10
11 10 12 15 17 18 19 21 21 18 18 18 16 13 12 12 11 11 11 10 10 9 9 9 9 9 9 9 8 8 8 7 5 5 5 5 5 6 6 6 7 7 6 5 4 3 4 4 4 4 4 4 4 5 5 5 4 4 5 5 4 5 6 6 9 11 12 13 13 12 11 11 10 11 11 11 10 9 8 7 6 7 9 10 10
11 11 13 16 18 19 20 21 20 18 17 17 14 11 11 11 10 9 9 10 9 9 9 9 9 8 8 8 7 6 6 5 5 5 5 5 5 5 5 5 6 6 5 5 5 4 4 4 4 4 4 4 4 5 6 7 6 5 5 6 5 4 5 5 5 7 9 11 12 12 12 12 11 12 12 12 12 11 10 10 9 8 7 7 8
11 11 14 17 18 19 20 20 19 17 17 16 13 10 11 11 10 10 9 9 9 8 8 8 7 7 6 6 5 5 5 5 5 5 4 4 5 5 4 4 4 4 4 4 5 5 5 5 4 5 6 6 7 7 7 8 8 7 6 7 6 5 5 6 5 6 7 8 10 11 12 11 11 11 12 13 14 13 12 11 11 11 10 8 7
11 12 15 17 18 19 19 19 18 16 16 15 12 10 11 10 9 9 9 8 8 8 7 7 7 6 6 6 6 6 5 5 5 5 5 6 6 6 6 6 6 6 6 6 6 6 5 6 6 6 7 7 7 8 8 8 8 8 8 8 8 7 5 5 4 5 6 7 8 9 10 11 12 12 11 11 12 13 13 12 10 10 12 12 11
12 13 16 18 18 18 19 18 17 16 16 14 11 9 10 9 9 9 9 7 7 7 7 6 7 6 6 6 6 6 6 6 7 7 7 7 7 7 8 8 7 7 7 7 6 6 5 6 6 6 6 6 5 6 7 7 7 7 7 7 8 8 7 6 5 5 6 6 6 7 8 8 10 11 12 11 10 11 12 12 11 10 11 12 12
12 13 17 18 18 18 18 17 16 16 15 13 11 9 9 9 8 8 8 7 7 6 6 6 6 6 6 6 6 6 6 7 7 7 7 8 8 7 7 8 8 8 8 8 8 8 8 7 7 6 6 7 6 6 7 8 8 7 7 7 7 7 7 7 6 6 6 7 7 7 6 6 7 9 11 11 11 11 11 12 13 12 11 11 11
12 14 17 18 18 18 17 16 16 16 14 12 10 9 8 8 8 7 7 6 6 5 5 5 5 4 5 5 5 5 6 6 7 7 7 7 8 7 7 7 7 7 9 10 11 12 12 12 12 11 10 10 9 9 9 9 9 9 10 10 10 9 9 9 8 8 7 7 8 8 7 6 5 6 9 11 11 11 11 11 12 13 13 12 11
13 14 17 18 17 17 16 15 15 15 14 12 9 8 8 7 7 6 6 5 5 4 4 4 4 3 4 4 4 4 5 5 6 6 6 7 8 8 8 9 9 8 9 9 9 10 12 14 15 15 15 15 14 13 12 12 11 11 12 12 12 11 11 11 11 11 10 9 9 9 8 7 6 6 7 9 11 10 10 10 10 11 12 12 12
13 15 17 18 17 16 16 15 15 15 13 11 9 7 7 7 6 5 5 4 5 5 5 5 5 5 5 5 5 5 5 5 4 5 5 5 6 6 7 8 9 9 9 9 7 7 8 10 10 11 13 16 17 17 16 15 13 12 12 13 12 12 12 12 12 12 12 11 11 10 8 8 8 7 7 8 10 11 11 11 10 10 11 11 11
13 15 17 17 16 15 15 15 15 15 13 11 9 7 6 6 5 4 4 4 4 6 6 7 8 8 8 8 7 6 5 5 4 4 4 4 4 4 4 5 7 8 9 10 10 8 7 6 6 6 8 10 13 15 17 17 15 14 13 12 12 11 11 12 11 12 12 12 11 11 9 8 8 9 9 9 10 11 12 12 10 10 11 12 11
13 15 17 17 15 15 16 15 15 15 12 10 8 7 6 5 4 3 4 4 5 7 8 9 10 11 10 10 8 6 5 5 4 5 5 5 5 4 4 4 5 7 9 10 11 11 9 6 5 4 5 6 7 9 11 14 15 15 13 12 12 11 12 12 13 13 13 13 12 11 11 11 10 10 10 10 10 10 11 13 13 10 10 11 12
13 15 17 16 15 15 16 15 15 15 12 9 7 6 5 4 3 3 3 5 6 8 10 10 10 11 10 10 9 8 6 6 6 6 6 6 6 6 5 4 5 8 10 12 12 12 11 9 7 5 5 5 5 6 7 9 11 13 13 12 12 12 12 13 15 15 14 13 13 12 12 13 13 12 12 12 11 11 10 12 14 13 10 9 10
13 15 16 16 15 15 16 15 15 15 11 8 7 6 5 4 3 2 3 5 8 9 10 10 10 10 10 10 9 8 8 7 7 6 6 6 7 7 6 5 7 9 11 12 12 12 12 11 10 9 8 7 6 6 6 7 8 10 11 11 11 10 10 11 13 16 16 15 14 13 13 13 14 14 13 12 11 11 11 11 13 15 13 9 8
12 14 16 15 15 15 16 16 16 14 11 8 7 6 4 3 3 2 3 7 9 10 9 9 9 8 8 8 8 7 7 7 6 7 7 7 7 7 6 7 9 10 10 10 10 10 10 9 9 9 8 8 7 6 6 7 8 9 10 11 10 9 8 8 9 12 15 16 16 15 14 14 14 14 14 13 11 10 10 10 12 14 14 11 8
11 14 15 15 15 15 15 16 16 15 11 8 7 6 5 3 3 3 5 8 9 9 8 8 7 7 7 7 7 7 7 7 7 8 8 8 7 7 8 9 9 8 8 7 7 8 8 7 7 8 8 8 8 8 8 8 9 10 10 11 10 9 8 7 7 7 10 14 16 16 15 15 14 14 14 13 12 11 9 9 11 14 14 11 9
11 13 14 14 15 14 14 16 17 15 11 9 7 6 5 4 3 4 6 8 9 8 7 7 7 7 7 7 8 8 8 8 8 8 7 7 8 8 9 9 8 7 7 7 7 8 9 8 8 9 10 10 11 12 11 11 11 11 11 11 11 10 9 8 7 6 6 9 13 15 16 15 15 14 14 13 12 11 10 9 10 12 13 12 9
10 12 13 14 14 13 14 17 17 14 11 9 7 6 5 4 4 6 7 8 7 7 7 7 7 8 8 9 9 9 9 8 7 7 7 8 9 9 8 8 8 8 9 10 10 11 12 13 14 15 17 17 18 19 18 17 17 16 15 13 11 10 10 10 8 7 5 5 8 13 15 15 14 14 14 14 13 11 9 9 10 11 12 12 10
10 11 12 13 13 12 13 17 17 13 10 9 7 6 5 5 5 7 7 7 7 6 6 7 8 8 9 10 9 8 8 7 7 8 8 8 9 10 11 13 14 15 16 17 18 18 19 19 19 19 19 20 20 20 19 19 20 21 21 19 15 12 10 10 9 9 7 6 6 8 11 14 15 14 13 14 15 13 10 8 8 10 11 11 10
9 11 12 13 12 11 13 17 17 12 9 8 7 6 6 5 6 7 7 7 7 6 6 7 9 9 9 9 8 8 8 8 8 9 11 12 14 17 19 19 20 19 18 18 17 16 16 15 14 14 14 14 14 14 13 14 15 17 19 21 21 18 14 11 9 9 8 7 6 6 7 9 13 14 14 13 15 15 13 10 8 8 10 11 10
Height
5641 5635 5629 5622 5615 5608 5601 5594 5587 5581 5574 5567 5560 5553 5546 5538 5530 5521 5512 5502 5492 5481 5471 5460 5449 5438 5427 5415 5404 5393 5381 5370 5360 5350 5339 5329 5319 5310 5301 5292 5284 5276 5268 5261 5254 5248 5242 5236 5231 5226 5221 5217 5213 5209 5205 5202 5198 5194 5191 5188 5184 5181 5179 5177 5175 5174 5169 5164 5163 5161 5159 5157 5156 5154 5153 5152 5150 5149 5147 5147 5147 5147 5146 5147 5149
5636 5630 5623 5616 5608 5602 5595 5588 5582 5575 5568 5561 5554 5547 5539 5531 5522 5512 5503 5493 5482 5471 5460 5449 5438 5427 5417 5406 5395 5384 5372 5359 5348 5339 5330 5319 5310 5301 5293 5285 5277 5270 5263 5256 5249 5243 5237 5231 5226 5221 5216 5212 5208 5205 5201 5197 5194 5190 5186 5183 5180 5176 5174 5172 5170 5169 5166 5161 5158 5156 5153 5151 5150 5148 5147 5145 5144 5142 5141 5140 5140 5139 5138 5139 5140
5631 5624 5616 5609 5603 5596 5590 5583 5576 5569 5563 5556 5548 5540 5531 5522 5513 5504 5493 5483 5472 5461 5450 5439 5428 5418 5407 5397 5387 5375 5363 5350 5339 5330 5321 5311 5302 5294 5286 5278 5271 5265 5258 5252 5246 5239 5234 5228 5223 5218 5213 5209 5205 5201 5198 5194 5190 5187 5183 5180 5177 5173 5170 5168 5165 5164 5162 5158 5155 5153 5150 5147 5145 5143 5141 5140 5138 5136 5135 5134 5133 5132 5131 5131 5131
5625 5618 5611 5604 5597 5591 5584 5578 5571 5564 5557 5550 5541 5533 5524 5514 5504 5494 5484 5473 5462 5450 5440 5429 5419 5409 5399 5388 5378 5368 5356 5342 5331 5322 5313 5304 5296 5287 5280 5273 5266 5260 5254 5249 5243 5237 5231 5226 5221 5216 5211 5207 5204 5199 5195 5192 5188 5184 5181 5177 5174 5171 5167 5164 5161 5159 5157 5154 5151 5148 5146 5143 5140 5138 5136 5135 5133 5131 5129 5129 5127 5126 5125 5124 5124
5619 5612 5605 5599 5592 5585 5579 5572 5566 5559 5551 5543 5534 5525 5516 5506 5496 5485 5474 5463 5453 5442 5431 5421 5411 5401 5391 5381 5370 5359 5349 5337 5325 5316 5308 5299 5291 5283 5276 5270 5264 5258 5252 5246 5241 5235 5230 5225 5220 5215 5211 5207 5203 5199 5194 5190 5187 5183 5179 5176 5172 5168 5165 5161 5158 5155 5153 5150 5148 5145 5142 5139 5136 5134 5131 5129 5128 5125 5123 5122 5120 5119 5118 5117 5116
5614 5607 5600 5593 5587 5580 5574 5567 5560 5553 5544 5536 5527 5518 5508 5498 5487 5476 5466 5455 5444 5434 5424 5414 5404 5394 5383 5373 5363 5352 5342 5332 5322 5312 5304 5297 5289 5283 5276 5270 5264 5258 5252 5246 5241 5235 5230 5225 5220 5215 5211 5207 5203 5199 5195 5190 5186 5183 5179 5175 5171 5168 5164 5161 5157 5154 5151 5148 5145 5142 5139 5136 5134 5131 5128 5125 5124 5122 5120 5117 5114 5113 5112 5111 5110
5608 5602 5595 5589 5582 5576 5569 5562 5554 5546 5538 5529 5520 5510 5500 5490 5479 5469 5458 5448 5437 5426 5417 5407 5397 5387 5377 5366 5356 5346 5337 5328 5319 5311 5304 5297 5290 5284 5277 5270 5264 5259 5253 5247 5242 5237 5231 5226 5222 5217 5213 5209 5204 5200 5196 5192 5188 5184 5180 5176 5172 5168 5164 5161 5157 5154 5151 5147 5144 5141 5138 5135 5132 5129 5126 5123 5121 5118 5117 5115 5112 5109 5107 5105 5104
5603 5597 5591 5584 5578 5571 5563 5556 5548 5539 5531 5522 5513 5503 5493 5483 5472 5462 5451 5441 5431 5421 5410 5400 5390 5381 5371 5361 5351 5342 5334 5326 5319 5311 5304 5298 5291 5285 5278 5271 5265 5260 5254 5249 5243 5238 5233 5228 5223 5219 5215 5210 5206 5202 5198 5194 5190 5185 5181 5177 5173 5169 5165 5161 5158 5154 5150 5147 5144 5140 5137 5134 5131 5127 5125 5122 5119 5116 5114 5112 5110 5107 5105 5101 5100
5599 5592 5586 5580 5573 5565 5557 5549 5541 5532 5524 5515 5506 5496 5486 5476 5465 5455 5444 5434 5424 5415 5404 5394 5384 5375 5366 5357 5348 5340 5332 5325 5319 5312 5305 5298 5291 5285 5279 5273 5267 5261 5255 5250 5245 5240 5235 5230 5225 5221 5216 5211 5207 5203 5198 5194 5190 5186 5182 5178 5174 5170 5166 5162 5158 5154 5150 5147 5143 5140 5136 5133 5130 5127 5123 5120 5118 5115 5112 5110 5107 5105 5103 5099 5097
5594 5588 5581 5574 5567 5560 5552 5543 5534 5526 5517 5508 5499 5489 5479 5469 5458 5448 5439 5428 5418 5409 5399 5390 5380 5371 5363 5354 5346 5339 5332 5325 5318 5312 5305 5299 5293 5287 5281 5275 5269 5264 5258 5252 5247 5242 5237 5232 5227 5222 5217 5212 5208 5203 5199 5195 5190 5186 5182 5178 5174 5171 5166 5162 5158 5154 5150 5147 5143 5139 5136 5132 5129 5126 5122 5119 5116 5113 5111 5108 5105 5103 5101 5097 5094
5590 5584 5576 5569 5562 5554 5546 5537 5529 5520 5511 5502 5492 5483 5472 5462 5452 5443 5433 5423 5413 5404 5395 5386 5378 5369 5361 5354 5346 5339 5332 5325 5319 5313 5307 5301 5295 5289 5283 5278 5271 5266 5261 5255 5250 5245 5239 5234 5229 5224 5219 5214 5209 5205 5200 5195 5191 5187 5182 5178 5174 5171 5167 5163 5159 5155 5151 5147 5144 5140 5136 5133 5129 5126 5122 5119 5115 5113 5110 5107 5105 5102 5099 5097 5093
5585 5579 5572 5564 5556 5548 5540 5532 5523 5514 5505 5496 5486 5476 5466 5456 5447 5437 5428 5419 5409 5401 5393 5384 5376 5368 5360 5353 5346 5340 5333 5326 5320 5314 5309 5303 5297 5292 5285 5279 5274 5268 5263 5257 5252 5246 5241 5236 5231 5226 5221 5216 5211 5206 5202 5197 5193 5188 5184 5180 5175 5172 5168 5164 5160 5156 5152 5149 5145 5141 5137 5134 5130 5127 5123 5119 5116 5113 5110 5107 5104 5101 5099 5096 5093
5581 5574 5567 5559 5551 5543 5535 5526 5518 5509 5499 5490 5480 5470 5461 5451 5441 5432 5424 5415 5407 5399 5391 5383 5375 5368 5361 5354 5347 5340 5334 5328 5322 5316 5311 5305 5299 5294 5287 5281 5276 5270 5265 5259 5254 5249 5243 5238 5233 5228 5223 5219 5214 5209 5204 5200 5195 5191 5186 5182 5177 5173 5169 5165 5162 5158 5154 5150 5146 5143 5139 5135 5132 5128 5125 5121 5117 5114 5110 5107 5104 5101 5098 5096 5093
5576 5569 5561 5554 5546 5538 5530 5521 5512 5503 5494 5485 5475 5466 5456 5447 5438 5429 5420 5412 5405 5397 5389 5382 5375 5368 5361 5355 5348 5342 5336 5330 5324 5318 5313 5307 5301 5295 5289 5284 5278 5273 5268 5262 5257 5252 5247 5242 5237 5232 5227 5222 5217 5213 5208 5203 5198 5194 5189 5185 5180 5176 5171 5168 5164 5160 5156 5153 5149 5145 5142 5138 5134 5131 5127 5124 5120 5117 5113 5109 5106 5103 5100 5097 5094
5571 5564 5557 5549 5542 5533 5525 5516 5507 5498 5489 5480 5471 5462 5452 5443 5435 5426 5419 5411 5403 5396 5388 5381 5375 5368 5362 5356 5349 5344 5338 5332 5327 5321 5315 5310 5304 5298 5292 5287 5282 5276 5271 5266 5261 5256 5251 5246 5241 5236 5231 5226 5221 5216 5211 5207 5202 5197 5192 5188 5184 5180 5176 5172 5168 5164 5160 5156 5153 5149 5146 5142 5138 5135 5130 5126 5123 5119 5116 5112 5109 5105 5102 5098 5095
5566 5560 5552 5545 5537 5529 5520 5512 5503 5494 5485 5476 5467 5458 5449 5440 5432 5425 5417 5409 5402 5395 5388 5382 5375 5369 5363 5357 5351 5346 5340 5335 5329 5324 5318 5313 5307 5302 5296 5291 5286 5281 5275 5270 5265 5260 5255 5250 5245 5240 5235 5229 5224 5219 5214 5210 5205 5200 5195 5191 5187 5183 5179 5175 5172 5168 5164 5160 5156 5153 5149 5145 5141 5137 5133 5129 5125 5122 5118 5115 5111 5107 5104 5100 5097
5562 5555 5548 5540 5532 5524 5516 5507 5498 5490 5481 5472 5463 5454 5446 5438 5430 5423 5415 5408 5401 5395 5389 5383 5377 5371 5365 5359 5354 5348 5343 5338 5333 5327 5322 5316 5311 5306 5301 5295 5290 5285 5280 5274 5269 5264 5259 5254 5249 5243 5238 5233 5228 5223 5218 5213 5208 5203 5199 5194 5190 5186 5182 5178 5175 5171 5167 5164 5160 5156 5152 5148 5144 5140 5136 5133 5129 5125 5122 5118 5114 5111 5107 5104 5101
5558 5551 5544 5536 5528 5520 5512 5504 5495 5486 5478 5469 5460 5452 5444 5436 5429 5422 5414 5408 5402 5396 5390 5384 5378 5373 5367 5362 5356 5351 5346 5341 5336 5330 5325 5320 5314 5309 5304 5299 5294 5289 5284 5279 5274 5269 5264 5258 5253 5248 5243 5238 5232 5227 5222 5217 5212 5207 5203 5198 5194 5190 5186 5183 5180 5176 5172 5168 5164 5160 5156 5152 5148 5144 5140 5136 5132 5129 5125 5121 5118 5115 5111 5107 5104
5554 5547 5539 5532 5524 5516 5508 5500 5492 5483 5475 5466 5458 5450 5443 5436 5429 5422 5415 5409 5403 5397 5391 5385 5380 5374 5369 5364 5359 5354 5349 5344 5339 5334 5328 5323 5318 5312 5307 5302 5298 5293 5288 5283 5278 5273 5268 5263 5258 5252 5247 5242 5237 5232 5227 5222 5217 5212 5208 5203 5200 5196 5193 5189 5185 5181 5177 5173 5169 5165 5161 5156 5152 5148 5144 5140 5136 5132 5128 5125 5121 5118 5114 5111 5107
5550 5543 5535 5528 5520 5513 5505 5497 5489 5480 5472 5464 5456 5449 5442 5436 5430 5423 5416 5410 5404 5398 5393 5387 5382 5377 5371 5367 5362 5357 5352 5347 5342 5337 5332 5326 5321 5316 5312 5307 5303 5298 5293 5287 5283 5278 5273 5268 5262 5257 5252 5247 5241 5236 5232 5227 5222 5217 5213 5209 5206 5202 5198 5194 5190 5186 5182 5178 5173 5169 5165 5160 5156 5152 5148 5143 5139 5136 5132 5129 5125 5121 5117 5114 5111
5545 5538 5531 5524 5517 5509 5502 5494 5486 5478 5470 5462 5454 5448 5442 5436 5430 5424 5418 5411 5406 5400 5395 5389 5384 5379 5374 5369 5365 5360 5355 5350 5345 5340 5335 5330 5325 5321 5317 5312 5308 5302 5297 5293 5288 5283 5279 5273 5267 5262 5257 5252 5247 5242 5237 5232 5227 5222 5218 5215 5210 5206 5202 5198 5194 5190 5185 5181 5177 5173 5169 5165 5160 5156 5152 5148 5144 5140 5136 5133 5129 5125 5122 5118 5114
5542 5534 5527 5521 5513 5506 5499 5492 5484 5476 5468 5460 5453 5447 5442 5436 5431 5424 5419 5413 5408 5402 5397 5391 5386 5381 5376 5372 5367 5363 5358 5353 5349 5344 5339 5335 5330 5326 5321 5316 5312 5307 5302 5298 5294 5289 5284 5278 5273 5267 5263 5257 5252 5247 5242 5237 5232 5227 5223 5218 5214 5209 5205 5202 5198 5193 5190 5186 5182 5178 5174 5169 5165 5161 5156 5152 5148 5144 5141 5137 5133 5129 5126 5122 5118
5538 5531 5524 5517 5510 5503 5496 5489 5481 5474 5466 5459 5452 5447 5441 5436 5430 5425 5419 5414 5409 5404 5399 5393 5388 5383 5379 5375 5370 5366 5362 5357 5353 5349 5344 5339 5335 5330 5326 5321 5317 5312 5308 5304 5299 5294 5289 5283 5278 5272 5267 5262 5257 5252 5247 5242 5237 5232 5227 5222 5218 5214 5209 5206 5202 5198 5194 5191 5187 5183 5179 5174 5170 5166 5161 5157 5153 5149 5145 5141 5138 5134 5130 5126 5122
5534 5527 5521 5514 5507 5500 5493 5486 5478 5471 5464 5458 5452 5447 5441 5436 5430 5425 5420 5415 5410 5405 5400 5395 5390 5386 5382 5378 5374 5370 5366 5362 5357 5353 5348 5344 5339 5335 5331 5326 5322 5318 5313 5309 5304 5299 5293 5287 5281 5276 5271 5267 5262 5256 5252 5247 5242 5237 5232 5228 5223 5219 5215 5211 5207 5203 5199 5195 5191 5187 5183 5179 5175 5171 5166 5162 5157 5153 5149 5145 5141 5138 5134 5130 5127
5531 5524 5518 5511 5505 5497 5490 5483 5476 5469 5462 5457 5452 5447 5441 5436 5431 5426 5421 5416 5411 5406 5401 5397 5393 5389 5385 5381 5377 5373 5369 5365 5361 5356 5352 5347 5343 5339 5335 5331 5326 5322 5318 5313 5308 5302 5296 5290 5284 5279 5275 5271 5266 5261 5257 5252 5247 5242 5238 5233 5229 5225 5221 5217 5212 5208 5204 5200 5195 5191 5187 5183 5178 5174 5170 5165 5161 5157 5153 5149 5145 5141 5138 5135 5131
5527 5521 5515 5508 5502 5494 5487 5480 5474 5467 5461 5456 5451 5447 5441 5436 5431 5426 5421 5417 5412 5408 5403 5399 5395 5392 5388 5384 5380 5376 5372 5368 5363 5359 5354 5350 5346 5342 5338 5333 5329 5325 5320 5315 5309 5304 5299 5293 5288 5285 5281 5276 5270 5266 5261 5256 5251 5247 5243 5238 5234 5230 5226 5222 5218 5213 5209 5204 5200 5195 5191 5186 5182 5177 5173 5169 5166 5162 5158 5154 5150 5147 5143 5140 5136
5524 5518 5512 5505 5498 5491 5485 5478 5472 5466 5460 5455 5451 5446 5442 5437 5432 5427 5422 5418 5413 5409 5405 5401 5397 5394 5390 5386 5382 5378 5374 5370 5365 5361 5357 5353 5349 5344 5340 5336 5331 5327 5323 5317 5313 5307 5302 5297 5293 5289 5284 5279 5274 5269 5265 5260 5255 5251 5247 5243 5239 5235 5231 5226 5222 5217 5213 5208 5204 5199 5195 5190 5186 5182 5178 5174 5170 5167 5163 5159 5155 5152 5148 5144 5141
5521 5515 5509 5502 5496 5489 5482 5476 5470 5464 5459 5455 5451 5446 5442 5437 5432 5427 5423 5418 5414 5411 5407 5403 5400 5396 5392 5388 5385 5381 5377 5373 5369 5364 5360 5357 5352 5348 5344 5339 5335 5331 5327 5322 5317 5311 5305 5301 5296 5292 5287 5282 5278 5273 5269 5265 5260 5256 5251 5247 5242 5238 5234 5229 5225 5221 5216 5212 5207 5203 5199 5195 5191 5187 5183 5179 5175 5171 5167 5163 5160 5156 5153 5149 5146
5518 5512 5506 5500 5493 5487 5480 5474 5469 5464 5459 5455 5451 5446 5442 5437 5432 5428 5423 5419 5416 5412 5409 5405 5402 5398 5395 5391 5388 5384 5381 5377 5373 5369 5365 5361 5356 5352 5348 5344 5340 5335 5331 5325 5320 5314 5309 5305 5301 5297 5292 5288 5283 5279 5274 5270 5265 5261 5256 5251 5247 5242 5238 5233 5229 5225 5220 5216 5212 5208 5203 5199 5195 5191 5187 5183 5179 5175 5171 5168 5164 5160 5157 5154 5151
5516 5510 5504 5497 5490 5484 5479 5473 5468 5463 5459 5455 5451 5446 5442 5438 5433 5429 5425 5421 5418 5414 5411 5407 5404 5401 5397 5394 5390 5387 5383 5379 5375 5371 5367 5363 5359 5355 5350 5346 5342 5338 5333 5327 5322 5317 5313 5310 5306 5301 5297 5293 5289 5284 5280 5275 5270 5266 5261 5256 5252 5247 5242 5238 5233 5229 5224 5220 5216 5212 5207 5203 5199 5195 5191 5187 5183 5179 5176 5172 5168 5165 5161 5158 5154
5514 5508 5501 5495 5488 5482 5477 5472 5467 5462 5458 5454 5451 5447 5442 5438 5434 5430 5426 5423 5419 5416 5413 5409 5406 5403 5399 5396 5393 5389 5385 5381 5377 5373 5369 5365 5361 5357 5352 5348 5344 5340 5334 5330 5325 5321 5317 5313 5309 5305 5300 5296 5292 5288 5283 5279 5274 5270 5265 5261 5256 5252 5247 5242 5237 5233 5228 5224 5219 5215 5211 5207 5203 5199 5195 5191 5187 5183 5179 5176 5172 5169 5165 5162 5158
5512 5506 5500 5493 5487 5481 5476 5471 5466 5462 5458 5454 5451 5447 5443 5439 5435 5431 5427 5424 5421 5417 5414 5411 5408 5405 5401 5398 5394 5390 5387 5383 5379 5375 5371 5367 5362 5358 5354 5350 5346 5341 5336 5332 5328 5324 5320 5316 5312 5308 5303 5299 5295 5291 5286 5282 5277 5273 5269 5264 5260 5255 5251 5246 5241 5236 5232 5227 5223 5219 5214 5210 5206 5202 5198 5194 5191 5187 5183 5179 5176 5173 5169 5165 5162
5510 5504 5498 5492 5486 5480 5475 5470 5465 5461 5458 5454 5451 5447 5443 5439 5435 5432 5428 5425 5422 5419 5416 5413 5410 5406 5403 5399 5396 5392 5388 5384 5380 5376 5372 5368 5364 5360 5356 5352 5347 5343 5338 5334 5330 5326 5323 5319 5315 5310 5306 5302 5298 5293 5289 5284 5280 5276 5271 5267 5262 5258 5253 5249 5244 5240 5235 5231 5226 5222 5218 5214 5210 5205 5201 5198 5194 5190 5187 5183 5180 5176 5173 5170 5166
5507 5502 5496 5490 5484 5479 5474 5469 5465 5461 5458 5454 5451 5448 5444 5440 5437 5433 5430 5427 5424 5421 5418 5414 5411 5408 5404 5401 5397 5393 5389 5385 5381 5377 5373 5370 5366 5362 5357 5353 5349 5344 5340 5337 5333 5329 5325 5321 5317 5313 5308 5304 5300 5296 5292 5287 5283 5278 5274 5269 5265 5261 5256 5252 5247 5243 5239 5234 5230 5226 5222 5217 5213 5209 5205 5201 5197 5194 5190 5187 5184 5180 5177 5174 5170
5505 5499 5493 5488 5482 5477 5473 5468 5464 5460 5457 5454 5451 5448 5444 5441 5438 5434 5431 5428 5425 5422 5418 5415 5412 5409 5405 5402 5398 5394 5390 5386 5382 5379 5375 5371 5367 5362 5358 5354 5349 5345 5342 5338 5334 5331 5327 5323 5318 5314 5310 5306 5302 5298 5293 5289 5285 5281 5276 5272 5268 5263 5259 5255 5250 5246 5242 5238 5233 5229 5225 5220 5216 5212 5208 5204 5200 5197 5193 5190 5187 5184 5180 5177 5174
5503 5497 5491 5486 5481 5476 5471 5467 5463 5460 5457 5454 5451 5447 5444 5441 5438 5435 5432 5429 5425 5422 5419 5416 5413 5410 5407 5403 5399 5395 5391 5388 5384 5380 5376 5372 5368 5363 5359 5355 5351 5347 5343 5339 5335 5331 5327 5323 5319 5315 5311 5307 5302 5298 5294 5290 5286 5281 5277 5273 5269 5265 5261 5257 5253 5248 5244 5240 5236 5232 5227 5223 5219 5214 5210 5207 5203 5199 5195 5192 5189 5186 5183 5180 5177
5500 5495 5489 5484 5479 5475 5471 5467 5463 5460 5457 5454 5451 5448 5445 5442 5439 5436 5433 5430 5427 5424 5421 5418 5415 5411 5408 5404 5400 5397 5393 5389 5385 5381 5377 5373 5368 5364 5361 5357 5353 5349 5345 5340 5336 5332 5328 5323 5319 5315 5311 5307 5303 5299 5294 5290 5286 5282 5278 5274 5270 5266 5262 5258 5254 5250 5246 5242 5238 5234 5230 5226 5222 5218 5214 5210 5206 5202 5198 5195 5191 5188 5185 5182 5180
5498 5493 5488 5483 5479 5474 5470 5466 5463 5460 5457 5454 5451 5448 5445 5442 5440 5437 5434 5431 5428 5425 5422 5419 5415 5412 5408 5405 5401 5397 5393 5389 5385 5381 5377 5373 5369 5365 5361 5357 5353 5349 5345 5341 5337 5333 5328 5324 5320 5315 5311 5307 5303 5299 5295 5291 5287 5283 5278 5274 5270 5266 5262 5258 5254 5251 5247 5243 5239 5235 5231 5228 5224 5220 5216 5213 5209 5205 5201 5198 5194 5191 5188 5185 5182
5496 5491 5486 5482 5478 5473 5469 5466 5462 5460 5457 5454 5451 5448 5446 5443 5440 5438 5435 5432 5429 5426 5423 5419 5416 5412 5409 5405 5401 5397 5393 5389 5385 5381 5377 5373 5369 5366 5362 5357 5353 5349 5345 5341 5337 5333 5329 5325 5320 5316 5312 5307 5303 5299 5295 5291 5287 5283 5279 5275 5271 5267 5263 5259 5255 5252 5248 5244 5240 5236 5232 5229 5225 5222 5218 5215 5211 5207 5204 5201 5197 5194 5191 5187 5184
5494 5489 5484 5480 5476 5472 5469 5465 5462 5459 5457 5454 5451 5449 5446 5443 5441 5438 5435 5432 5429 5426 5423 5419 5416 5412 5409 5405 5401 5397 5393 5389 5385 5382 5378 5374 5370 5366 5362 5358 5354 5350 5346 5342 5337 5333 5329 5325 5320 5316 5312 5308 5303 5299 5295 5291 5287 5283 5279 5275 5271 5267 5263 5260 5256 5252 5248 5245 5241 5237 5233 5230 5226 5223 5220 5216 5213 5210 5206 5203 5199 5196 5193 5190 5187
5492 5487 5483 5479 5475 5472 5468 5465 5462 5459 5456 5454 5451 5448 5446 5444 5441 5438 5436 5432 5429 5426 5423 5419 5416 5412 5408 5405 5401 5397 5394 5390 5386 5382 5379 5375 5371 5367 5363 5359 5355 5351 5346 5342 5337 5333 5329 5325 5320 5316 5312 5308 5304 5299 5295 5291 5287 5283 5279 5275 5271 5267 5264 5260 5256 5252 5249 5245 5241 5238 5234 5231 5227 5224 5221 5218 5215 5211 5208 5205 5202 5198 5195 5192 5189
5490 5486 5481 5477 5474 5471 5467 5464 5461 5459 5456 5453 5451 5448 5446 5443 5441 5438 5435 5432 5429 5426 5422 5419 5416 5412 5409 5405 5401 5398 5394 5391 5387 5383 5379 5375 5371 5367 5363 5359 5355 5351 5346 5342 5338 5333 5329 5325 5321 5317 5313 5308 5304 5300 5296 5292 5288 5284 5279 5275 5272 5268 5264 5260 5256 5253 5249 5245 5242 5238 5235 5231 5228 5224 5221 5218 5215 5212 5210 5207 5203 5200 5197 5194 5191
5488 5484 5480 5476 5473 5470 5466 5463 5461 5458 5455 5453 5450 5448 5445 5443 5441 5438 5435 5432 5429 5426 5422 5419 5415 5412 5408 5405 5401 5398 5394 5390 5387 5383 5379 5375 5371 5367 5363 5358 5354 5350 5346 5342 5338 5334 5329 5325 5321 5317 5313 5309 5304 5300 5296 5292 5288 5284 5280 5276 5272 5268 5264 5261 5257 5253 5249 5245 5242 5238 5235 5232 5228 5225 5222 5219 5216 5213 5210 5207 5205 5202 5199 5197 5194
5486 5482 5478 5475 5472 5468 5465 5462 5460 5457 5455 5452 5450 5447 5445 5443 5440 5437 5435 5432 5428 5425 5422 5418 5415 5411 5408 5404 5401 5397 5393 5390 5386 5382 5378 5374 5370 5366 5362 5358 5354 5350 5346 5341 5337 5333 5329 5325 5321 5316 5312 5308 5304 5300 5296 5292 5288 5284 5280 5276 5272 5268 5265 5261 5257 5254 5250 5246 5243 5239 5235 5232 5229 5226 5222 5219 5216 5214 5211 5208 5205 5203 5200 5198 5196
5484 5480 5476 5473 5470 5467 5464 5462 5459 5456 5454 5451 5449 5447 5444 5442 5440 5437 5434 5431 5428 5424 5421 5418 5414 5411 5407 5404 5400 5396 5393 5389 5385 5381 5377 5374 5370 5366 5362 5357 5353 5349 5345 5341 5336 5332 5328 5324 5320 5316 5312 5308 5304 5299 5295 5292 5288 5284 5280 5276 5272 5268 5264 5261 5257 5253 5250 5247 5243 5240 5236 5233 5230 5226 5223 5220 5217 5214 5211 5209 5206 5204 5201 5199 5197
5482 5478 5475 5472 5469 5466 5463 5461 5458 5456 5453 5450 5448 5446 5444 5441 5439 5436 5433 5430 5427 5424 5420 5417 5414 5410 5407 5403 5399 5396 5392 5388 5384 5380 5377 5373 5369 5365 5360 5356 5352 5348 5343 5340 5336 5332 5328 5324 5320 5316 5312 5308 5303 5299 5295 5291 5287 5283 5279 5275 5271 5268 5264 5260 5257 5253 5250 5247 5243 5240 5237 5233 5230 5227 5224 5221 5218 5214 5212 5209 5207 5204 5202 5200 5197
5480 5477 5473 5470 5468 5465 5462 5460 5457 5455 5452 5449 5447 5445 5443 5440 5438 5435 5432 5429 5426 5423 5419 5416 5413 5409 5406 5402 5398 5395 5391 5387 5383 5379 5375 5371 5367 5363 5359 5355 5351 5346 5342 5338 5334 5330 5326 5322 5319 5315 5311 5307 5303 5299 5294 5290 5286 5282 5278 5275 5271 5267 5264 5260 5257 5253 5250 5246 5243 5240 5237 5234 5231 5227 5224 5221 5218 5215 5212 5209 5207 5205 5202 5200 5198
5478 5475 5472 5469 5466 5464 5461 5459 5456 5454 5451 5448 5446 5444 5442 5439 5436 5434 5431 5428 5425 5422 5418 5415 5412 5408 5404 5401 5397 5393 5390 5386 5382 5378 5374 5370 5366 5362 5357 5353 5349 5345 5340 5336 5332 5328 5324 5320 5317 5313 5309 5305 5301 5297 5293 5289 5285 5281 5278 5274 5270 5267 5263 5260 5256 5253 5250 5246 5243 5240 5237 5234 5231 5228 5225 5222 5219 5216 5213 5210 5207 5205 5203 5201 5198
5476 5473 5470 5467 5465 5462 5460 5458 5455 5452 5450 5447 5445 5443 5440 5438 5435 5432 5429 5426 5423 5420 5417 5414 5410 5407 5403 5399 5396 5392 5388 5384 5380 5376 5372 5368 5364 5360 5356 5351 5347 5343 5339 5334 5330 5326 5322 5318 5314 5310 5307 5303 5299 5295 5291 5287 5283 5280 5276 5273 5269 5266 5262 5259 5255 5252 5249 5246 5243 5240 5237 5234 5231 5227 5225 5222 5219 5216 5213 5210 5208 5206 5203 5201 5199
5475 5471 5468 5466 5463 5461 5459 5456 5454 5451 5448 5446 5443 5441 5439 5436 5434 5431 5428 5425 5422 5419 5415 5412 5409 5405 5401 5398 5394 5390 5387 5383 5379 5375 5371 5366 5362 5358 5354 5350 5345 5341 5337 5332 5328 5324 5320 5316 5312 5309 5305 5301 5298 5294 5290 5286 5282 5278 5275 5271 5268 5265 5261 5258 5255 5251 5248 5245 5242 5239 5236 5233 5230 5227 5225 5222 5219 5216 5213 5211 5208 5206 5204 5201 5199
5473 5470 5467 5464 5461 5459 5457 5455 5452 5449 5447 5444 5442 5440 5437 5435 5432 5429 5426 5423 5420 5417 5413 5410 5407 5403 5400 5396 5393 5389 5385 5381 5377 5373 5368 5364 5360 5356 5352 5348 5344 5339 5335 5331 5327 5323 5319 5315 5311 5308 5304 5301 5297 5293 5289 5285 5282 5278 5274 5270 5267 5263 5260 5257 5253 5250 5247 5244 5241 5238 5236 5233 5230 5227 5224 5222 5219 5216 5213 5211 5208 5206 5203 5201 5199